COSMOS 2476 (744)

Last updated on July 6, 2021, 3:40 p.m. UTC

1 37867U 11064A   21187.09448354 -.00000000  00000-0  00000+0 0  9999
2 37867  64.5749 134.1634 0021826 241.4057 305.3804  2.13101799 75303
UTC
Height (km)
Latitude
Longitude
Inclination
Orbital Period
UTC large
Height (km)
Speed (km/s)
/
Latitude / Longitude
Inclination (degrees)
Orbital Period (minutes)
Azimuth
Elevation
Range (km)
Doppler Factor
iOS Compass Heading
iOS Angle